Ogden, UT

3:23 AM MDT on August 25, 2016 (GMT -0600)
Ogden-Hinckley

Weather History for KOGD - October, 2011

Change the Weather History Date:

Thursday, October 6, 2011

  Actual Average Record
Temperature  
Mean Temperature 42 °F -  
Max Temperature 46 °F 71 °F 87 °F (1988)
Min Temperature 37 °F 40 °F 27 °F (1955)
Degree Days  
Heating Degree Days 24    
Moisture  
Dew Point 36 °F    
Average Humidity 85    
Maximum Humidity 93    
Minimum Humidity 60    
Precipitation  
Precipitation 0.55 in - - ()
Sea Level Pressure  
Sea Level Pressure 29.67 in    
Wind  
Wind Speed 6 mph (WNW)    
Max Wind Speed 14 mph    
Max Gust Speed 23 mph    
Visibility 8 miles    
Events Rain    
Averages and records for this station are not official NWS values.
T = Trace of Precipitation, MM = Missing Value Source: NWS Daily Summary

Daily Weather History Graph

Daily Weather History Graph

Search for Another Location

Airport or City:

Trip Planner

Search our weather history database for the weather conditions in past years. The results will help you decide how hot, cold, wet, or windy it might be!

Date:

Astronomy

Oct. 06, 2011 Rise Set
Actual Time 7:29 AM MDT 7:01 PM MDT
Civil Twilight 7:02 AM MDT 7:29 PM MDT
Nautical Twilight 6:30 AM MDT 8:01 PM MDT
Astronomical Twilight 5:58 AM MDT 8:33 PM MDT
Moon 4:19 PM MDT (10/6) 2:19 AM MDT (10/6)
Length of Visible Light 12h 27m
Length of Day
11h 32m
Waxing Gibbous, 76% of the Moon is Illuminated
Oct 6
Waxing Gibbous
Oct 11
Full
Oct 19
Last Quarter
Oct 26
New
Nov 2
First Quarter

Hourly Weather History & Observations

Time (MDT) Temp. Windchill Dew Point Humidity Pressure Visibility Wind Dir Wind Speed Gust Speed Precip Events Conditions
12:26 AM 41.0 °F 37.1 °F 37.4 °F 87% 29.61 in 4.0 mi NW 5.8 mph - 0.09 in Rain Rain
12:53 AM 41.0 °F 35.2 °F 37.9 °F 89% 29.54 in 9.0 mi NNW 9.2 mph - 0.14 in Rain Light Rain
1:37 AM 39.2 °F 34.2 °F 37.4 °F 93% 29.59 in 8.0 mi WNW 6.9 mph - 0.05 in Rain Light Rain
1:53 AM 39.9 °F 35.1 °F 37.0 °F 89% 29.55 in 7.0 mi WNW 6.9 mph - 0.06 in Rain Light Rain
2:53 AM 39.9 °F 35.1 °F 37.9 °F 93% 29.57 in 5.0 mi NW 6.9 mph - 0.06 in Rain Rain
3:19 AM 39.2 °F 35.0 °F 37.4 °F 93% 29.61 in 7.0 mi NNW 5.8 mph - 0.03 in Rain Light Rain
3:46 AM 39.2 °F 37.0 °F 35.6 °F 87% 29.61 in 10.0 mi NNW 3.5 mph - 0.04 in Rain Light Rain
3:53 AM 39.9 °F 37.8 °F 36.0 °F 86% 29.56 in 10.0 mi NW 3.5 mph - 0.04 in Rain Light Rain
4:28 AM 39.2 °F 35.0 °F 35.6 °F 87% 29.60 in 10.0 mi NNW 5.8 mph - 0.00 in   Overcast
4:53 AM 39.9 °F 35.8 °F 36.0 °F 86% 29.54 in 10.0 mi NNW 5.8 mph - 0.00 in Rain Light Rain
5:53 AM 39.9 °F 35.1 °F 36.0 °F 86% 29.52 in 10.0 mi NW 6.9 mph - 0.00 in   Overcast
6:03 AM 39.2 °F 35.9 °F 37.4 °F 93% 29.59 in 10.0 mi West 4.6 mph - N/A   Overcast
6:12 AM 39.2 °F 37.0 °F 37.4 °F 93% 29.58 in 10.0 mi NW 3.5 mph - 0.00 in Rain Light Rain
6:53 AM 39.9 °F 36.7 °F 37.0 °F 89% 29.55 in 10.0 mi WNW 4.6 mph - 0.00 in Rain Light Rain
7:53 AM 39.9 °F 35.8 °F 37.0 °F 89% 29.55 in 10.0 mi WNW 5.8 mph - 0.00 in   Overcast
8:10 AM 39.2 °F 34.2 °F 37.4 °F 93% 29.60 in 10.0 mi WNW 6.9 mph - 0.00 in Rain Light Rain
8:53 AM 39.2 °F 34.2 °F 37.4 °F 93% 29.61 in 10.0 mi WNW 6.9 mph - N/A Rain Light Rain
9:53 AM 39.0 °F 33.4 °F 36.0 °F 89% 29.57 in 4.0 mi NW 8.1 mph - 0.02 in Rain Light Rain
10:53 AM 37.9 °F 30.9 °F 36.0 °F 93% 29.62 in 4.0 mi NW 10.4 mph - 0.06 in Rain Light Rain
11:53 AM 41.0 °F 37.1 °F 37.0 °F 86% 29.63 in 7.0 mi NNW 5.8 mph - 0.02 in Rain Light Rain
12:01 PM 41.0 °F 36.4 °F 35.6 °F 81% 29.66 in 10.0 mi NW 6.9 mph - 0.00 in Rain Light Rain
12:28 PM 39.2 °F 34.2 °F 35.6 °F 87% 29.68 in 7.0 mi NNW 6.9 mph - 0.01 in Rain Light Rain
12:49 PM 37.4 °F 32.8 °F 33.8 °F 87% 29.70 in 2.5 mi NNW 5.8 mph - 0.05 in Rain Rain
12:53 PM 39.0 °F 36.8 °F 35.1 °F 86% 29.68 in 2.5 mi NNW 3.5 mph - 0.05 in Rain Light Rain
12:55 PM 39.2 °F 37.0 °F 35.6 °F 87% 29.70 in 3.0 mi North 3.5 mph - 0.00 in Rain Light Rain
1:12 PM 39.2 °F - 35.6 °F 87% 29.71 in 10.0 mi Calm Calm - 0.00 in Rain Light Rain
1:24 PM 39.2 °F - 35.6 °F 87% 29.72 in 9.0 mi Calm Calm - 0.00 in Rain Light Rain
1:37 PM 39.2 °F - 35.6 °F 87% 29.73 in 2.5 mi Calm Calm - 0.02 in Rain Rain
1:48 PM 37.4 °F 34.9 °F 33.8 °F 87% 29.73 in 4.0 mi East 3.5 mph - 0.06 in Rain Rain
1:53 PM 37.9 °F - 35.1 °F 89% 29.72 in 4.0 mi Calm Calm - 0.06 in Rain Light Rain
2:05 PM 37.4 °F 34.9 °F 35.6 °F 93% 29.74 in 10.0 mi SE 3.5 mph - 0.00 in   Overcast
2:53 PM 42.1 °F 37.7 °F 37.0 °F 82% 29.71 in 10.0 mi SSE 6.9 mph - 0.00 in   Partly Cloudy
3:53 PM 43.0 °F 37.2 °F 35.1 °F 74% 29.72 in 10.0 mi SSE 10.4 mph - N/A   Mostly Cloudy
4:53 PM 46.0 °F 40.2 °F 34.0 °F 63% 29.73 in 10.0 mi South 12.7 mph - N/A   Scattered Clouds
5:53 PM 45.0 °F 39.7 °F 32.0 °F 60% 29.74 in 10.0 mi South 10.4 mph - N/A   Overcast
6:53 PM 44.1 °F 38.6 °F 33.1 °F 65% 29.77 in 10.0 mi SSE 10.4 mph - N/A   Overcast
7:24 PM 41.0 °F 33.5 °F 33.8 °F 76% 29.82 in 10.0 mi SW 13.8 mph 23.0 mph 0.00 in Rain Light Rain
7:53 PM 41.0 °F 39.0 °F 34.0 °F 76% 29.81 in 10.0 mi South 3.5 mph - 0.02 in   Overcast
8:53 PM 41.0 °F 38.0 °F 36.0 °F 82% 29.81 in 10.0 mi SSE 4.6 mph - 0.00 in   Overcast
9:53 PM 41.0 °F 34.7 °F 35.1 °F 79% 29.82 in 10.0 mi South 10.4 mph - 0.01 in   Overcast
10:53 PM 42.1 °F 37.1 °F 35.1 °F 76% 29.84 in 10.0 mi SSE 8.1 mph - N/A   Overcast
11:53 PM 42.1 °F 36.1 °F 36.0 °F 79% 29.83 in 10.0 mi SSE 10.4 mph - 0.01 in Rain Light Rain